Weather Roundup
Issued by NWS

Home | Current Version | Previous Version | Text Only | Print | Product List | Glossary On
Versions: 1 2 3 4 5 6 7 8 9 10 11 12 13 14 15 16 17 18 19 20 21 22 23 24 25 26 27 28 29 30 31 32 33 34 35 36 37 38 39 40 41 42 43 44 45 46 47 48 49 50
000
NZUS93 KARX 020410
HRRWXR

CURRENT HOURLY OBSERVATIONS ACROSS
MUCH OF THE UPPER MISSISSIPPI VALLEY
NATIONAL WEATHER SERVICE LA CROSSE WI
1100 PM CDT MON SEP 01 2014


...SOUTHEAST MINNESOTA...


CITY           SKY/WX    TMP DP  RH WIND       PRES   REMARKS
ROCHESTER      CLEAR     60  56  86 W7        29.86R
ROCHESTER/MAYO FAIR      64  56  76 W6        29.85R
WINONA         PTCLDY    61  59  94 CALM      29.82R
AUSTIN         CLEAR     59  57  94 SW3       29.85R
ALBERT LEA     CLEAR     61  59  94 CALM      29.85R
DODGE CENTER   CLEAR     61  57  88 W6        29.85R
PRESTON        PTCLDY    62  60  94 CALM      29.86R
OWATONNA       CLEAR     59  55  88 CALM      29.84S
FARIBAULT      CLEAR     64  57  77 S3        29.83F
$$

...ELSEWHERE IN MINNESOTA...


CITY           SKY/WX    TMP DP  RH WIND       PRES   REMARKS
MINNEAPOLIS    PTCLDY    67  58  72 SW3       29.81S
INTNL FALLS    CLEAR     48  47  96 SW3       29.73R
DULUTH         PTCLDY    57  50  77 W7        29.77S
RED WING       CLEAR     61  57  88 CALM      29.81S
REDWOOD FALLS  PTCLDY    65  58  78 W9        29.83R
MANKATO        CLEAR     63  55  77 SW6       29.83F
WORTHINGTON    PTCLDY    61  55  82 W7        29.88S
FAIRMONT       CLEAR     61  55  82 SW6       29.85S
$$

...SOUTHWEST WISCONSIN...


CITY           SKY/WX    TMP DP  RH WIND       PRES   REMARKS
LA CROSSE      PTCLDY    65  60  84 SE6       29.81S
PRAIRIE DU CHI CLOUDY    63  61  91 CALM      29.84R
BOSCOBEL       MOCLDY    65  62  90 CALM      29.84R
LONE ROCK      PTCLDY    66  61  84 CALM      29.84R
PLATTEVILLE    MOCLDY    67  63  89 CALM      29.85F
FORT MC COY    PTCLDY    58  57  96 E5        29.83R
CAMP DOUGLAS   CLEAR     59  59 100 CALM      29.82R
VIROQUA        FAIR      61  61  98 W5        29.84S
WIS DELLS      CLEAR     63  60  90 SW5       29.84R
$$

...ELSEWHERE IN WISCONSIN...


CITY           SKY/WX    TMP DP  RH WIND       PRES   REMARKS
MILWAUKEE      PTCLDY    69  64  84 W5        29.83R
MADISON        PTCLDY    67  60  78 CALM      29.84R
GREEN BAY      CLEAR     63  60  90 SW5       29.78R
EAU CLAIRE     CLEAR     61  58  90 W5        29.80R
BLACK RVR FLS  FAIR      56  56 100 CALM      29.80S FOG
MEDFORD        CLEAR     57  55  91 SW3       29.81R
WAUSAU         CLEAR     62  57  83 NW7       29.79S
WIS RAPIDS     CLEAR     59  57  93 CALM      29.81S
MARSHFIELD     CLEAR     60  56  86 W6        29.80S
RICE LAKE      PTCLDY    57  55  93 CALM      29.82S
$$

...NORTHEAST IOWA...


CITY           SKY/WX    TMP DP  RH WIND       PRES   REMARKS
WATERLOO       PTCLDY    64  61  90 CALM      29.83F
DUBUQUE        CLOUDY    65  63  93 S3        29.86S
DECORAH        MOCLDY    63  59  88 CALM      29.84S
MASON CITY     CLEAR     59  58  96 CALM      29.87S
CHARLES CITY   PTCLDY    61  59  94 W3        29.86S
OELWEIN        MOCLDY    64  61  88 NW5       29.86S
$$

...ELSEWHERE IN IOWA...


CITY           SKY/WX    TMP DP  RH WIND       PRES   REMARKS
DES MOINES     PTCLDY    70  63  78 SW5       29.86S
IOWA CITY      CLOUDY    70  66  87 CALM      29.85F
FORT DODGE     CLEAR     61  59  94 CALM      29.87S
MARSHALLTOWN   CLEAR     65  62  90 CALM      29.86R
CEDAR RAPIDS   CLOUDY    67  66  97 CALM      29.85S
$$

...NORTHERN ILLINOIS...


CITY           SKY/WX    TMP DP  RH WIND       PRES   REMARKS
CHICAGO-OHARE  CLOUDY    72  66  81 SW6       29.85R
DUPAGE         CLOUDY    72  68  87 SW8       29.86R
CHICAGO-MIDWAY CLOUDY    77  67  71 W10       29.84R
MOLINE         CLOUDY    70  66  87 S5        29.88R
ROCKFORD       CLOUDY    69  66  90 W3        29.87R
STERLING       CLOUDY    72  66  83 SW3       29.87R
PEORIA         CLOUDY    74  66  76 SW6       29.90R
$$

NOTE: "FAIR" INDICATES FEW OR NO CLOUDS BELOW 12,000 FEET WITH NO
SIGNIFICANT WEATHER AND/OR OBSTRUCTIONS TO VISIBILITY. WIND
SPEEDS ARE IN MILES-PER-HOUR.



USA.gov is the U.S. government's official web portal to all federal, state and local government web resources and services.